Location: Prague
(50.0830°N, 14.4670°E)
Time: 17:25:04
(UTC+02:00)

DOVE 4 - Pass Details

Date: 11 April 2023
Orbit: 584 x 791 km, 97.8° (Epoch: 03 June)

Event Time Altitude Azimuth Distance (km) Brightness Sun altitude
Rises 01:35:37 0° 0° (N) 3,045 ? -31.4°
Reaches altitude 10° 01:38:47 10° 338° (NNW) 2,079 ? -31.3°
Enters shadow 01:41:07 15° 307° (NW) 1,752 ? -31.2°
